McConnell AFB, KS

11:43 AM CDT on September 17, 2019 (GMT -0500)
McConnell Air Force Base

Weather History for KIAB - May, 2019

Change the Weather History Date:

Wednesday, May 15, 2019

  Actual Average Record
Temperature  
Mean Temperature 72 °F -  
Max Temperature 85 °F 74 °F 89 °F (2001)
Min Temperature 59 °F 54 °F 43 °F (2011)
Cooling Degree Days 8    
Growing Degree Days 22 (Base 50)    
Moisture  
Dew Point 61 °F    
Average Humidity 65    
Maximum Humidity 92    
Minimum Humidity 45    
Precipitation  
Precipitation 0.00 in - - ()
Sea Level Pressure  
Sea Level Pressure 29.88 in    
Wind  
Wind Speed 9 mph (SSE)    
Max Wind Speed 14 mph    
Max Gust Speed 18 mph    
Visibility 10 miles    
Events      
Averages and records for this station are not official NWS values.
T = Trace of Precipitation, MM = Missing Value Source: NWS Daily Summary

Daily Weather History Graph

Daily Weather History Graph

Search for Another Location

Airport or City:

Astronomy

May. 15, 2019 Rise Set
Actual Time 6:19 AM CDT 8:31 PM CDT
Civil Twilight 5:50 AM CDT 9:00 PM CDT
Nautical Twilight 5:14 AM CDT 9:37 PM CDT
Astronomical Twilight 4:35 AM CDT 10:16 PM CDT
Moon 5:08 PM CDT (5/15) 4:40 AM CDT (5/15)
Length of Visible Light 15h 10m
Length of Day
14h 11m
Waxing Gibbous, 87% of the Moon is Illuminated
May 15
Waxing Gibbous
May 18
Full
May 26
Last Quarter
Jun 3
New
Jun 10
First Quarter

Hourly Weather History & Observations

Time (CDT) Temp. Heat Index Dew Point Humidity Pressure Visibility Wind Dir Wind Speed Gust Speed Precip Events Conditions
12:56 AM 65.1 °F - 57.4 °F 76% 29.90 in 10.0 mi SSE 9.2 mph - N/A   Clear
1:56 AM 64.6 °F - 57.2 °F 77% 29.90 in 10.0 mi SSE 8.1 mph - N/A   Clear
2:56 AM 63.7 °F - 57.4 °F 80% 29.87 in 10.0 mi SSE 9.2 mph - N/A   Clear
3:56 AM 63.0 °F - 58.1 °F 84% 29.87 in 10.0 mi SSE 9.2 mph - N/A   Clear
5:56 AM 59.4 °F - 57.0 °F 92% 29.89 in 10.0 mi SSE 5.8 mph - N/A   Clear
6:56 AM 59.7 °F - 57.4 °F 92% 29.90 in 10.0 mi SSE 5.8 mph - N/A   Clear
7:56 AM 65.1 °F - 59.7 °F 83% 29.92 in 10.0 mi South 4.6 mph - N/A   Clear
8:56 AM - - - N/A% - - North - - N/A   Unknown
8:58 AM 69.8 °F - 59.0 °F 68% 29.93 in 10.0 mi South 6.9 mph - N/A   Scattered Clouds
9:56 AM - - - N/A% - - North - - N/A   Unknown
9:59 AM 73.4 °F - 62.6 °F 69% 29.92 in 10.0 mi South 6.9 mph - N/A   Scattered Clouds
10:56 AM - - - N/A% - - North - - N/A   Unknown
10:58 AM 75.2 °F - 62.6 °F 65% 29.91 in 10.0 mi South 10.4 mph - N/A   Partly Cloudy
11:56 AM - - - N/A% - - North - - N/A   Unknown
11:58 AM 80.6 °F 82.3 °F 64.4 °F 58% 29.91 in 10.0 mi South 11.5 mph - N/A   Scattered Clouds
12:56 PM - - - N/A% - - North - - N/A   Unknown
1:56 PM 86.0 °F 89.4 °F 68.0 °F 55% 29.89 in 7.0 mi SE 4.6 mph - N/A   Scattered Clouds
2:56 PM 84.9 °F 86.6 °F 64.8 °F 51% 29.87 in 7.0 mi SE 13.8 mph - N/A   Scattered Clouds
3:32 PM 86.0 °F 86.6 °F 62.6 °F 45% 29.88 in 10.0 mi SSE 11.5 mph - N/A   Clear
3:56 PM 85.1 °F 86.1 °F 63.1 °F 48% 29.86 in 10.0 mi SE 11.5 mph 18.4 mph N/A   Clear
4:56 PM 85.3 °F 85.9 °F 62.1 °F 46% 29.86 in 10.0 mi SSE 13.8 mph - N/A   Clear
5:56 PM 85.1 °F 86.4 °F 63.7 °F 49% 29.84 in 10.0 mi SSE 9.2 mph - N/A   Clear
6:56 PM 84.0 °F 85.6 °F 64.4 °F 52% 29.84 in 10.0 mi SSE 10.4 mph - N/A   Clear
7:56 PM 81.1 °F 82.3 °F 62.8 °F 53% 29.83 in 10.0 mi SE 11.5 mph - N/A   Clear
8:56 PM 77.0 °F - 62.1 °F 60% 29.86 in 10.0 mi SE 10.4 mph - N/A   Clear
9:56 PM 74.7 °F - 61.2 °F 63% 29.87 in 10.0 mi SE 10.4 mph - N/A   Clear
10:56 PM 74.1 °F - 62.4 °F 67% 29.88 in 10.0 mi SSE 12.7 mph - N/A   Clear
11:56 PM 72.3 °F - 61.5 °F 69% 29.88 in 10.0 mi SSE 11.5 mph - N/A   Clear